OBJECT B, 51947

Orbit data source: Space-Track

You're viewing an Uncataloged Satellite

Recently launched and/or uncataloged satellites may have evolving metadata. Metadata may include but not limited to: Owner, Maufacturer, Bus, Motor, and Mission.

OBJECT B, 51947 is a Chinese satellite in LEO that was launched on Sat, 05 Mar 2022 UTC via a CHANG ZHENG 2C launch vehicle from the Xichang Space Center, China (XSC). Unknown objects in Earth's orbit typically refer to objects detected orbiting the Earth but have not yet been identified or cataloged. These objects could be anything from previously untracked satellites, spent rocket stages, debris from satellite collisions, or even natural meteoroids temporarily captured by Earth's gravity.

Loading next visibility...
Identifier
51947, 2022-023B
Orbit
LEO
Country
Flag of CNCN / PRC
Related business
None
Manufacturer
Unknown
Mission
Operational Commercial Communications
Bus & Motor
Unknown
Mass
Unknown
Launch date (UTC)
2022-03-05 (4 years ago)
Launch vehicle
CHANG ZHENG 2C
Launch site
Xichang Space Center, China (XSC)
Object type
Unknown
Shape & HBR
Box + 1 Pan, 2.5 m
Radar Cross Section
3.313 m², Large (>1 m²)

Expand to show TLE details & history
Last TLE update: 8 hours ago

TLE from 8 hours ago
0 OBJECT B
1 51947U 22023B   26173.10440969  .00002238  00000-0  10678-3 0  9997
2 51947  63.4849 253.1144 0101458 347.7891  12.0763 15.17965368238463
Epoch: 2026-06-22T02:30Z
TLE epoch observation values (Epoch: 2026-06-22T02:30:20.997Z)
Latitude
-0.00003°
Longitude
-54.76822°
Altitude
445.576 km
Speed
7.683 km/s
True Right ascension
16h 52m 27s
True Declination
0° 00' 00"
Sunlit
Object was in full shadow at epoch
Visualization orbit readout
Latitude
Unknown
Longitude
Unknown
Altitude
Unknown
Speed
Unknown
Apparent Right ascension
Unknown
Apparent Declination
Unknown
Sunlit
N/A
Visualization observer readout
Local Sidereal Time
21:32:53
Azimuth
Unknown
Elevation
Unknown
Doppler factor
Unknown
Orbital elements
Apogee altitude
580.603 km
Perigee altitude
440.817 km
Semi-major axis
6,888.847 km
Eccentricity
0.01015
Inclination
63.4849°
RAAN
253.1144°
Arg. of periapsis
347.7891°
True anomaly
12.32259°
Mean anomaly
12.0763°
Eccentric anomaly
12.19914°
Mean motion
3.79598 °/min
Orbital period
94.84 mins
BSTAR
0.00010678
Loading maneuver chart data...
Computing Atmospheric mass density...
Loading historical data...
Loading historical data...
Loading historical data...
Loading historical data...
Loading historical data...
Loading historical data...
Loading historical data...

Documentation

Showing up to 5 results
|